Location: ?????????
(54.7630°N, 39.4991°E)
Time: 08:03:51
(UTC+00:00)

Cosmos 405 Rocket - Pass Details

Date: 14 April 2026
Orbit: 359 x 378 km, 81.2° (Epoch: 14 May)

Event Time Altitude Azimuth Distance (km) Brightness Sun altitude
Rises 17:26:15 0° 11° (NNE) 2,226 6.2 -9.0°
Enters shadow 17:30:35 - 68° (ENE) 1,860 5.2 -9.6°
Exits shadow 18:06:29 -70° 161° (SSE) 12,386 9.6 -13.7°
Reaches altitude 10° 19:00:20 10° 359° (N) 1,367 5.6 -19.1°
